Time,TemperatureF,DewpointF,PressureIn,WindDirection,WindDirectionDegrees,WindSpeedMPH,WindSpeedGustMPH,Humidity,HourlyPrecipIn,Conditions,Clouds,dailyrainin,SolarRadiationWatts/m^2,SoftwareType,DateUTC
2013-03-02 00:01:00,10.0,7.0,-100.00,North,359,2.0,5.0,87,0.00,,,0.00,0.000000,,2013-03-02 06:01:00,
2013-03-02 00:32:00,9.0,5.0,-100.00,NNE,12,3.0,5.0,84,0.00,,,0.00,0.000000,,2013-03-02 06:32:00,
2013-03-02 00:42:00,9.0,5.0,-100.00,NNE,12,3.0,5.0,84,0.00,,,0.00,0.000000,,2013-03-02 06:42:00,
2013-03-02 00:52:00,9.0,5.0,-100.00,NNE,12,3.0,5.0,84,0.00,,,0.00,0.000000,,2013-03-02 06:52:00,
2013-03-02 01:01:00,9.0,5.0,-100.00,NNE,12,3.0,5.0,84,0.00,,,0.00,0.000000,,2013-03-02 07:01:00,
2013-03-02 01:32:00,4.0,-1.0,-100.00,NW,324,1.0,4.0,81,0.00,,,0.00,0.000000,,2013-03-02 07:32:00,
2013-03-02 01:42:00,4.0,-1.0,-100.00,NW,324,1.0,4.0,81,0.00,,,0.00,0.000000,,2013-03-02 07:42:00,
2013-03-02 01:52:00,4.0,-1.0,-100.00,NW,324,1.0,4.0,81,0.00,,,0.00,0.000000,,2013-03-02 07:52:00,
2013-03-02 02:01:00,4.0,-1.0,-100.00,NW,324,1.0,4.0,81,0.00,,,0.00,0.000000,,2013-03-02 08:01:00,
2013-03-02 02:32:00,1.0,-4.0,-100.00,NNW,336,2.0,3.0,80,0.00,,,0.00,0.000000,,2013-03-02 08:32:00,
2013-03-02 02:43:00,1.0,-4.0,-100.00,NNW,336,2.0,3.0,80,0.00,,,0.00,0.000000,,2013-03-02 08:43:00,
2013-03-02 02:52:00,1.0,-4.0,-100.00,NNW,336,2.0,3.0,80,0.00,,,0.00,0.000000,,2013-03-02 08:52:00,
2013-03-02 03:01:00,1.0,-4.0,-100.00,NNW,336,2.0,3.0,80,0.00,,,0.00,0.000000,,2013-03-02 09:01:00,
2013-03-02 03:32:00,-1.0,-6.0,-100.00,SE,137,1.0,2.0,79,0.00,,,0.00,0.000000,,2013-03-02 09:32:00,
2013-03-02 03:42:00,-1.0,-6.0,-100.00,SE,137,1.0,2.0,79,0.00,,,0.00,0.000000,,2013-03-02 09:42:00,
2013-03-02 03:52:00,-1.0,-6.0,-100.00,SE,137,1.0,2.0,79,0.00,,,0.00,0.000000,,2013-03-02 09:52:00,
2013-03-02 04:01:00,-1.0,-6.0,-100.00,SE,137,1.0,2.0,79,0.00,,,0.00,0.000000,,2013-03-02 10:01:00,
2013-03-02 04:32:00,-3.0,-8.0,-100.00,SSW,195,0.0,2.0,77,0.00,,,0.00,0.000000,,2013-03-02 10:32:00,
2013-03-02 04:43:00,-3.0,-8.0,-100.00,SSW,195,0.0,2.0,77,0.00,,,0.00,0.000000,,2013-03-02 10:43:00,
2013-03-02 04:52:00,-3.0,-8.0,-100.00,SSW,195,0.0,2.0,77,0.00,,,0.00,0.000000,,2013-03-02 10:52:00,
2013-03-02 05:01:00,-3.0,-8.0,-100.00,SSW,195,0.0,2.0,77,0.00,,,0.00,0.000000,,2013-03-02 11:01:00,
2013-03-02 05:32:00,-5.0,-11.0,-100.00,SSW,192,0.0,1.0,76,0.00,,,0.00,0.000000,,2013-03-02 11:32:00,
2013-03-02 05:42:00,-5.0,-11.0,-100.00,SSW,192,0.0,1.0,76,0.00,,,0.00,0.000000,,2013-03-02 11:42:00,
2013-03-02 05:52:00,-5.0,-11.0,-100.00,SSW,192,0.0,1.0,76,0.00,,,0.00,0.000000,,2013-03-02 11:52:00,
2013-03-02 06:02:00,-5.0,-11.0,-100.00,SSW,192,0.0,1.0,76,0.00,,,0.00,0.000000,,2013-03-02 12:02:00,
2013-03-02 06:33:00,-8.0,-14.0,-100.00,East,83,0.0,2.0,74,0.00,,,0.00,0.000000,,2013-03-02 12:33:00,
2013-03-02 06:43:00,-8.0,-14.0,-100.00,East,83,0.0,2.0,74,0.00,,,0.00,0.000000,,2013-03-02 12:43:00,
2013-03-02 06:53:00,-8.0,-14.0,-100.00,East,83,0.0,2.0,74,0.00,,,0.00,0.000000,,2013-03-02 12:53:00,
2013-03-02 07:01:00,-8.0,-14.0,-100.00,East,83,0.0,2.0,74,0.00,,,0.00,0.000000,,2013-03-02 13:01:00,
2013-03-02 07:32:00,-8.0,-14.0,-100.00,North,11,0.0,2.0,73,0.00,,,0.00,2.000000,,2013-03-02 13:32:00,
2013-03-02 07:42:00,-8.0,-14.0,-100.00,North,11,0.0,2.0,73,0.00,,,0.00,2.000000,,2013-03-02 13:42:00,
2013-03-02 07:52:00,-8.0,-14.0,-100.00,North,11,0.0,2.0,73,0.00,,,0.00,2.000000,,2013-03-02 13:52:00,
2013-03-02 08:01:00,-8.0,-14.0,-100.00,North,11,0.0,2.0,73,0.00,,,0.00,2.000000,,2013-03-02 14:01:00,
2013-03-02 08:32:00,6.0,-1.0,-100.00,ENE,61,0.0,2.0,72,0.00,,,0.00,61.000000,,2013-03-02 14:32:00,
2013-03-02 08:42:00,6.0,-1.0,-100.00,ENE,61,0.0,2.0,72,0.00,,,0.00,61.000000,,2013-03-02 14:42:00,
2013-03-02 08:52:00,6.0,-1.0,-100.00,ENE,61,0.0,2.0,72,0.00,,,0.00,61.000000,,2013-03-02 14:52:00,
2013-03-02 09:02:00,6.0,-1.0,-100.00,ENE,61,0.0,2.0,72,0.00,,,0.00,61.000000,,2013-03-02 15:02:00,
2013-03-02 09:32:00,17.0,9.0,-100.00,North,359,1.0,3.0,70,0.00,,,0.00,232.000000,,2013-03-02 15:32:00,
2013-03-02 09:42:00,17.0,9.0,-100.00,North,359,1.0,3.0,70,0.00,,,0.00,232.000000,,2013-03-02 15:42:00,
2013-03-02 09:52:00,17.0,9.0,-100.00,North,359,1.0,3.0,70,0.00,,,0.00,232.000000,,2013-03-02 15:52:00,
2013-03-02 10:01:00,17.0,9.0,-100.00,North,359,1.0,3.0,70,0.00,,,0.00,232.000000,,2013-03-02 16:01:00,
2013-03-02 10:32:00,30.0,14.0,-100.00,West,272,1.0,4.0,51,0.00,,,0.00,398.000000,,2013-03-02 16:32:00,
2013-03-02 10:42:00,30.0,14.0,-100.00,West,272,1.0,4.0,51,0.00,,,0.00,398.000000,,2013-03-02 16:42:00,
2013-03-02 10:52:00,30.0,14.0,-100.00,West,272,1.0,4.0,51,0.00,,,0.00,398.000000,,2013-03-02 16:52:00,
2013-03-02 11:01:00,30.0,14.0,-100.00,West,272,1.0,4.0,51,0.00,,,0.00,398.000000,,2013-03-02 17:01:00,
2013-03-02 11:32:00,27.0,9.0,-100.00,South,186,4.0,7.0,47,0.00,,,0.00,535.000000,,2013-03-02 17:32:00,
2013-03-02 11:42:00,27.0,9.0,-100.00,South,186,4.0,7.0,47,0.00,,,0.00,535.000000,,2013-03-02 17:42:00,
2013-03-02 11:52:00,27.0,9.0,-100.00,South,186,4.0,7.0,47,0.00,,,0.00,535.000000,,2013-03-02 17:52:00,
2013-03-02 12:02:00,27.0,9.0,-100.00,South,186,4.0,7.0,47,0.00,,,0.00,535.000000,,2013-03-02 18:02:00,
2013-03-02 12:32:00,27.0,10.0,-100.00,SE,144,5.0,9.0,48,0.00,,,0.00,614.000000,,2013-03-02 18:32:00,
2013-03-02 12:42:00,27.0,10.0,-100.00,SE,144,5.0,9.0,48,0.00,,,0.00,614.000000,,2013-03-02 18:42:00,
2013-03-02 12:52:00,27.0,10.0,-100.00,SE,144,5.0,9.0,48,0.00,,,0.00,614.000000,,2013-03-02 18:52:00,
2013-03-02 13:01:00,27.0,10.0,-100.00,SE,144,5.0,9.0,48,0.00,,,0.00,614.000000,,2013-03-02 19:01:00,
2013-03-02 13:32:00,32.0,12.0,-100.00,SW,225,4.0,7.0,43,0.00,,,0.00,644.000000,,2013-03-02 19:32:00,
2013-03-02 13:42:00,32.0,12.0,-100.00,SW,225,4.0,7.0,43,0.00,,,0.00,644.000000,,2013-03-02 19:42:00,
2013-03-02 13:52:00,32.0,12.0,-100.00,SW,225,4.0,7.0,43,0.00,,,0.00,644.000000,,2013-03-02 19:52:00,
2013-03-02 14:01:00,32.0,12.0,-100.00,SW,225,4.0,7.0,43,0.00,,,0.00,644.000000,,2013-03-02 20:01:00,
2013-03-02 14:32:00,31.0,10.0,-100.00,West,281,5.0,9.0,41,0.00,,,0.00,607.000000,,2013-03-02 20:32:00,
2013-03-02 14:42:00,31.0,10.0,-100.00,West,281,5.0,9.0,41,0.00,,,0.00,607.000000,,2013-03-02 20:42:00,
2013-03-02 14:52:00,31.0,10.0,-100.00,West,281,5.0,9.0,41,0.00,,,0.00,607.000000,,2013-03-02 20:52:00,
2013-03-02 15:02:00,31.0,10.0,-100.00,West,281,5.0,9.0,41,0.00,,,0.00,607.000000,,2013-03-02 21:02:00,
2013-03-02 15:32:00,35.0,12.0,-100.00,ESE,111,2.0,8.0,38,0.00,,,0.00,510.000000,,2013-03-02 21:32:00,
2013-03-02 15:42:00,35.0,12.0,-100.00,ESE,111,2.0,8.0,38,0.00,,,0.00,510.000000,,2013-03-02 21:42:00,
2013-03-02 15:52:00,35.0,12.0,-100.00,ESE,111,2.0,8.0,38,0.00,,,0.00,510.000000,,2013-03-02 21:52:00,
2013-03-02 16:02:00,35.0,12.0,-100.00,ESE,111,2.0,8.0,38,0.00,,,0.00,510.000000,,2013-03-02 22:02:00,
2013-03-02 16:32:00,30.0,8.0,-100.00,WNW,300,4.0,6.0,38,0.00,,,0.00,328.000000,,2013-03-02 22:32:00,
2013-03-02 16:42:00,30.0,8.0,-100.00,WNW,300,4.0,6.0,38,0.00,,,0.00,328.000000,,2013-03-02 22:42:00,
2013-03-02 16:52:00,30.0,8.0,-100.00,WNW,300,4.0,6.0,38,0.00,,,0.00,328.000000,,2013-03-02 22:52:00,
2013-03-02 17:01:00,30.0,8.0,-100.00,WNW,300,4.0,6.0,38,0.00,,,0.00,328.000000,,2013-03-02 23:01:00,
2013-03-02 17:32:00,27.0,8.0,-100.00,WNW,295,3.0,6.0,43,0.00,,,0.00,98.000000,,2013-03-02 23:32:00,
2013-03-02 17:42:00,27.0,8.0,-100.00,WNW,295,3.0,6.0,43,0.00,,,0.00,98.000000,,2013-03-02 23:42:00,
2013-03-02 17:52:00,27.0,8.0,-100.00,WNW,295,3.0,6.0,43,0.00,,,0.00,98.000000,,2013-03-02 23:52:00,
2013-03-02 18:02:00,27.0,8.0,-100.00,WNW,295,3.0,6.0,43,0.00,,,0.00,98.000000,,2013-03-03 00:02:00,
2013-03-02 18:32:00,25.0,7.0,-100.00,WSW,252,2.0,5.0,45,0.00,,,0.00,45.000000,,2013-03-03 00:32:00,
2013-03-02 18:42:00,25.0,7.0,-100.00,WSW,252,2.0,5.0,45,0.00,,,0.00,45.000000,,2013-03-03 00:42:00,
2013-03-02 18:52:00,25.0,7.0,-100.00,WSW,252,2.0,5.0,45,0.00,,,0.00,45.000000,,2013-03-03 00:52:00,
2013-03-02 19:01:00,25.0,7.0,-100.00,WSW,252,2.0,5.0,45,0.00,,,0.00,45.000000,,2013-03-03 01:01:00,
2013-03-02 19:32:00,22.0,8.0,-100.00,North,351,1.0,4.0,55,0.00,,,0.00,0.000000,,2013-03-03 01:32:00,
2013-03-02 19:42:00,22.0,8.0,-100.00,North,351,1.0,4.0,55,0.00,,,0.00,0.000000,,2013-03-03 01:42:00,
2013-03-02 19:52:00,22.0,8.0,-100.00,North,351,1.0,4.0,55,0.00,,,0.00,0.000000,,2013-03-03 01:52:00,
2013-03-02 20:01:00,22.0,8.0,-100.00,North,351,1.0,4.0,55,0.00,,,0.00,0.000000,,2013-03-03 02:01:00,
2013-03-02 20:32:00,20.0,8.0,-100.00,WSW,239,0.0,2.0,60,0.00,,,0.00,0.000000,,2013-03-03 02:32:00,
2013-03-02 20:42:00,20.0,8.0,-100.00,WSW,239,0.0,2.0,60,0.00,,,0.00,0.000000,,2013-03-03 02:42:00,
2013-03-02 20:52:00,20.0,8.0,-100.00,WSW,239,0.0,2.0,60,0.00,,,0.00,0.000000,,2013-03-03 02:52:00,
2013-03-02 21:01:00,20.0,8.0,-100.00,WSW,239,0.0,2.0,60,0.00,,,0.00,0.000000,,2013-03-03 03:01:00,
2013-03-02 21:32:00,16.0,7.0,-100.00,East,83,0.0,1.0,67,0.00,,,0.00,0.000000,,2013-03-03 03:32:00,
2013-03-02 21:42:00,16.0,7.0,-100.00,East,83,0.0,1.0,67,0.00,,,0.00,0.000000,,2013-03-03 03:42:00,
2013-03-02 21:52:00,16.0,7.0,-100.00,East,83,0.0,1.0,67,0.00,,,0.00,0.000000,,2013-03-03 03:52:00,
2013-03-02 22:01:00,16.0,7.0,-100.00,East,83,0.0,1.0,67,0.00,,,0.00,0.000000,,2013-03-03 04:01:00,
2013-03-02 22:32:00,12.0,5.0,-100.00,SE,137,0.0,0.0,74,0.00,,,0.00,0.000000,,2013-03-03 04:32:00,
2013-03-02 22:42:00,12.0,5.0,-100.00,SE,137,0.0,0.0,74,0.00,,,0.00,0.000000,,2013-03-03 04:42:00,
2013-03-02 22:52:00,12.0,5.0,-100.00,SE,137,0.0,0.0,74,0.00,,,0.00,0.000000,,2013-03-03 04:52:00,
2013-03-02 23:02:00,12.0,5.0,-100.00,SE,137,0.0,0.0,74,0.00,,,0.00,0.000000,,2013-03-03 05:02:00,
2013-03-02 23:32:00,8.0,3.0,-100.00,ESE,121,0.0,0.0,78,0.00,,,0.00,0.000000,,2013-03-03 05:32:00,
2013-03-02 23:42:00,8.0,3.0,-100.00,ESE,121,0.0,0.0,78,0.00,,,0.00,0.000000,,2013-03-03 05:42:00,
2013-03-02 23:52:00,8.0,3.0,-100.00,ESE,121,0.0,0.0,78,0.00,,,0.00,0.000000,,2013-03-03 05:52:00,